EHI
0 0 0 0 0 0 0 0 0 0 0 0 0 0 0 0 0 0 0 0 0 0 0 0 0 0 0 0 0 0 0 0 0 0 0 0 0 0 0 0 0 0 0 0
0 0 0 0 0 0 0 0 0 0 0 0 0 0 0 0 0 0 0 0 0 0 0 0 0 0 0 0 0 0 0 0 0 0 0 0 0 0 0 0 0 0 0 0
0 0 0 0 0 0 0 0 0 0 0 0 0 0 0 0 0 0 0 0 0 0 0 0 0 0 0 0 0 0 0 0 0 0 0 0 0 0 0 0 0 0 0 0
0 0 0 0 0 0 0 0 0 0 0 0 0 0 0 0 0 0 0 0 0 0 0 0 0 0 0 0 0 0 0 0 0 0 0 0 0 0 0 0 0 0 0 0
0 0 0 0 0 0 0 0 0 0 0 0 0 0 0 0 0 0 0 0 0 0 0 0 0 0 0 0 0 0 0 0 0 0 0 0 0 0 0 0 0 0 0 0
0 0 0 0 0 0 0 0 0 0 0 0 0 0 0 0 0 0 0 0 0 0 0 0 0 0 0 0 0 0 0 0 0 0 0 0 0 0 0 0 0 0 0 0
0 0 0 0 0 0 0 0 0 0 0 0 0 0 0 0 0 0 0 0 0 0 0 0 0 0 0 0 0 0 0 0 0 0 0 0 0 0 0 0 0 0 0 0
0 0 0 0 0 0 0 0 0 0 0 0 0 0 0 0 0 0 0 0 0 0 0 0 0 0 0 0 0 0 0 0 0 0 0 0 0 0 0 0 0 0 0 0
0 0 0 0 0 0 0 0 0 0 0 0 0 0 0 0 0 0 0 0 0 0 0 0 0 0 0 0 0 0 0 0 0 0 0 0 0 0 0 0 0 0 0 0
0 0 0 0 0 0 0 0 0 0 0 0 0 0 0 0 0 0 0 0 0 0 0 0 0 0 0 0 0 0 0 0 0 0 0 0 0 0 0 0 0 0 0 0
0 0 0 0 0 0 0 0 0 0 0 0 0 0 0 0 0 0 0 0 0 0 0 0 0 0 0 0 0 0 0 0 0 0 0 0 0 0 0 0 0 0 0 0
0 0 0 0 0 0 0 0 0 0 0 0 0 0 0 0 0 0 0 0 0 0 0 0 0 0 0 0 0 0 0 0 0 0 0 0 0 0 0 0 0 0 0 0
0 0 0 0 0 0 0 0 0 0 0 0 0 0 0 0 0 0 0 0 0 0 0 0 0 0 0 0 0 0 0 0 0 0 0 0 0 0 0 0 0 0 0 0
0 0 0 0 0 0 0 0 0 0 0 0 0 0 0 0 0 0 0 0 0 0 0 0 0 0 0 0 0 0 0 0 0 0 0 0 0 0 0 0 0 0 0 0
0 0 0 0 0 0 0 0 0 0 0 0 0 0 0 0 0 0 0 0 0 0 0 0 0 0 0 0 0 0 0 0 0 0 0 0 0 0 0 0 0 0 0 0
0 0 0 0 0 0 0 0 0 0 0 0 0 0 0 0 0 0 0 0 0 0 0 0 0 0 0 0 0 0 0 0 0 0 0 0 0 0 0 0 0 0 0 0
0 0 0 0 0 0 0 0 0 0 0 0 0 0 0 0 0 0 0 0 0 0 0 0 0 0 0 0 0 0 0 0 0 0 0 0 0 0 0 0 0 0 0 0
0 0 0 0 0 0 0 0 0 0 0 0 0 0 0 0 0 0 0 0 0 0 0 0 0 0 0 0 0 0 0 0 0 0 0 0 0 0 0 0 0 0 0 0
0 0 0 0 0 0 0 0 0 0 0 0 0 0 0 0 0 0 0 0 0 0 0 0 0 0 0 0 0 0 0 0 0 0 0 0 0 0 0 0 0 0 0 0
0 0 0 0 0 0 0 0 0 0 0 0 0 0 0 0 0 0 0 0 0 0 0 0 0 0 0 0 0 0 0 0 0 0 0 0 0 0 0 0 0 0 0 0
0 0 0 0 0 0 0 0 0 0 0 0 0 0 0 0 0 0 0 0 0 0 0 0 0 0 0 0 0 0 0 0 0 0 0 0 0 0 0 0 0 0 0 0
0 0 0 0 0 0 0 0 0 0 0 0 0 0 0 0 0 0 0 0 0 0 0 0 0 0 0 0 0 0 0 0 0 0 0 0 0 0 0 0 0 0 0 0
0 0 0 0 0 0 0 0 0 0 0 0 0 0 0 0 0 0 0 0 0 0 0 0 0 0 0 0 0 0 0 0 0 0 0 0 0 0 0 0 0 0 0 0
0 0 0 0 0 0 0 0 0 0 0 0 0 0 0 0 0 0 0 0 0 0 0 0 0 0 0 0 0 0 0 0 0 0 0 0 0 0 0 0 0 0 0 0
0 0 0 0 0 0 0 0 0 0 0 0 0 0 0 0 0 0 0 0 0 0 0 0 0 0 0 0 0 0 0 0 0 0 0 0 0 0 0 0 0 0 0 0
0 0 0 0 0 0 0 0 0 0 0 0 0 0 0 0 0 0 0 0 0 0 0 0 0 0 0 0 0 0 0 0 0 0 0 0 0 0 0 0 0 0 0 0
0 0 0 0 0 0 0 0 0 0 0 0 0 0 0 0 0 0 0 0 0 0 0 0 0 0 0 0 0 0 0 0 0 0 0 0 0 0 0 0 0 0 0 0
Wind_Speed
3 2 4 5 6 5 3 3 5 6 9 12 13 13 12 12 12 12 12 12 11 11 9 9 9 9 9 8 8 9 9 9 8 6 7 7 7 6 6 5 5 4 4 4
3 3 5 7 9 7 5 3 4 7 4 5 10 10 11 12 13 13 13 13 12 11 10 9 8 8 8 7 6 7 8 7 6 6 6 6 5 5 5 4 4 4 4 3
0 2 3 6 6 5 4 4 2 2 3 10 11 11 11 11 12 13 13 13 12 10 8 7 7 6 6 6 6 6 6 5 5 5 5 4 4 4 4 3 3 3 3 3
2 3 3 2 1 2 4 5 4 4 5 8 10 10 8 9 11 12 12 12 11 9 8 6 6 5 5 5 6 6 5 4 4 4 3 3 3 3 3 2 2 2 3 3
3 3 1 1 1 1 1 3 3 6 9 11 13 11 8 7 10 11 11 11 9 8 7 6 6 5 6 5 5 4 4 3 2 2 2 2 2 2 2 2 2 2 2 3
4 3 1 2 3 1 3 1 2 6 10 11 7 5 5 8 11 12 11 10 9 7 7 6 5 5 6 5 4 3 2 1 1 1 1 1 1 1 1 1 2 2 3 3
3 2 2 3 4 1 1 3 3 6 8 6 4 5 10 12 11 11 10 9 8 7 6 5 4 5 5 3 2 1 1 1 1 0 0 0 0 1 1 2 3 3 4 4
2 2 2 4 3 2 2 2 5 7 7 9 11 13 13 12 11 11 10 8 7 6 5 3 4 5 4 2 1 0 1 1 1 1 1 0 1 1 2 2 3 3 3 4
4 3 3 3 2 2 3 5 5 7 9 13 13 13 12 11 10 9 8 6 5 6 5 3 2 3 3 1 1 1 1 1 2 2 2 1 0 0 1 2 2 2 2 3
2 1 2 3 3 4 5 6 7 9 12 13 13 12 12 10 9 8 6 6 5 6 5 2 1 1 2 1 1 0 1 2 2 2 2 2 1 1 1 1 1 1 2 3
2 1 3 4 4 5 8 10 12 11 10 11 14 13 11 9 8 7 5 4 4 5 4 2 1 1 1 1 0 1 2 2 2 2 2 1 1 1 0 1 2 1 1 1
6 7 6 4 4 6 9 9 11 13 10 9 10 11 10 8 6 6 5 4 4 3 2 1 1 2 2 1 1 1 2 2 2 1 1 1 1 2 3 1 1 1 2 3
4 5 6 8 6 6 8 9 9 10 11 10 8 9 8 6 5 5 5 5 4 3 2 1 2 3 3 2 1 2 3 3 2 1 0 1 1 1 1 3 3 3 4 5
8 9 7 5 6 7 9 10 10 10 9 9 8 8 8 6 5 5 4 4 3 2 1 2 2 3 3 2 2 2 2 3 2 1 1 1 1 1 1 1 2 3 4 6
4 5 9 9 9 9 9 11 12 10 8 8 7 7 7 7 5 4 3 2 2 1 1 1 2 3 3 2 2 2 1 1 1 1 1 1 1 2 1 1 1 2 3 4
8 10 12 13 12 10 11 11 11 9 8 7 6 6 6 6 5 3 2 2 2 1 1 1 2 3 3 2 1 1 1 1 2 2 2 2 2 2 1 1 1 2 3 3
12 10 10 11 11 10 9 9 10 9 8 8 7 6 6 5 4 2 1 1 1 1 1 2 3 3 2 2 1 1 1 0 2 3 2 2 1 1 1 1 0 1 2 3
10 12 13 14 13 11 10 9 9 9 8 7 7 7 6 5 4 2 1 0 1 2 2 2 3 3 3 2 1 1 1 1 2 2 2 2 2 2 1 1 1 1 2 3
10 11 10 11 11 11 10 9 9 8 8 8 8 6 5 4 3 2 1 0 1 2 3 3 3 2 3 3 1 0 1 2 2 2 2 3 3 2 2 1 1 1 2 2
10 11 11 11 10 9 10 9 9 8 7 7 7 5 4 3 2 2 1 1 3 3 3 3 2 2 3 3 2 1 1 2 3 3 3 3 2 2 1 1 1 1 2 2
12 12 12 12 10 10 10 10 9 8 7 7 7 6 5 3 2 2 1 2 3 2 2 2 1 2 2 2 1 1 2 3 3 3 3 3 3 2 2 1 1 1 2 2
12 12 12 11 11 9 8 8 8 9 7 6 6 5 4 3 2 1 2 3 3 1 0 1 1 2 1 1 2 2 2 3 3 3 3 3 3 2 1 1 1 1 1 2
11 10 11 11 11 9 8 7 8 8 8 7 6 6 5 4 3 3 2 2 2 2 1 1 2 1 1 2 2 2 3 3 3 3 2 2 2 2 1 1 1 1 1 1
10 10 10 9 9 9 8 7 7 6 7 6 6 6 5 3 2 3 3 2 3 3 2 2 2 1 3 2 2 2 2 2 2 2 2 2 2 2 1 1 1 0 0 1
10 10 10 11 10 8 8 7 6 5 5 3 4 4 4 4 3 2 2 3 4 3 2 2 2 2 2 2 2 2 2 2 2 3 3 2 2 2 2 1 1 1 1 0
9 9 9 9 8 7 7 6 5 4 4 3 3 3 3 2 2 2 2 3 4 4 3 2 1 2 2 2 2 2 2 2 3 2 3 2 2 2 2 2 2 1 1 1
9 7 6 6 5 6 7 7 6 6 5 5 4 3 3 3 2 3 3 3 2 2 2 2 2 2 2 3 3 2 2 2 2 2 2 2 2 2 2 2 2 2 1 1
Wind_Direction
76 66 86 61 27 27 77 157 164 174 166 173 164 155 146 138 132 125 118 110 104 99 94 87 83 78 76 74 72 77 78 76 72 70 69 68 66 65 64 64 66 62 59 47
49 52 77 55 22 20 30 37 101 119 125 135 131 131 138 141 140 133 124 117 112 106 101 96 92 90 86 81 78 82 83 80 75 71 68 66 65 64 62 56 48 45 39 27
31 316 49 29 357 5 30 23 67 128 149 138 136 143 147 144 137 131 126 122 117 113 107 101 97 99 97 93 89 86 85 82 78 76 71 64 64 60 51 38 27 20 10 4
75 52 59 276 339 57 67 32 33 89 118 129 122 109 105 123 128 127 124 121 118 114 107 99 98 98 99 98 94 90 87 84 82 82 77 65 58 45 24 14 6 349 340 337
90 81 47 319 2 350 58 43 45 108 115 113 111 95 82 99 114 117 117 116 113 112 111 108 107 108 103 95 93 94 96 93 89 93 85 67 50 24 6 3 359 347 337 343
94 105 198 285 325 314 101 43 119 131 135 135 127 123 125 119 114 113 112 113 114 111 109 108 110 112 105 103 104 110 122 124 118 120 116 83 31 6 5 14 9 11 21 14
87 101 288 311 313 356 59 268 142 132 133 123 95 114 125 121 113 113 113 112 113 112 111 118 124 116 113 117 136 173 159 122 83 50 289 215 52 39 44 52 43 35 25 12
104 85 277 332 14 90 215 94 106 109 107 104 109 112 115 116 116 115 112 111 113 112 109 111 123 122 122 141 202 142 88 49 6 343 326 45 102 69 61 62 52 31 14 3
161 194 262 336 24 40 112 104 103 111 115 119 117 117 115 114 115 115 115 112 110 114 108 101 118 129 137 196 197 114 50 350 337 338 344 352 141 129 74 67 61 28 9 355
93 31 23 32 46 50 72 98 109 119 124 124 121 121 119 118 118 118 117 117 118 119 120 124 130 144 181 219 198 156 330 331 335 341 344 6 48 128 134 127 89 34 359 347
106 152 91 43 61 89 92 99 105 107 111 122 124 124 124 124 125 124 122 119 124 131 140 159 181 264 272 264 238 309 316 316 321 329 336 13 48 54 152 203 199 184 285 311
202 195 159 155 127 117 111 113 120 117 107 111 120 122 121 121 123 125 127 127 128 137 151 192 253 286 297 285 228 247 286 295 298 309 339 63 71 34 31 51 9 279 259 272
163 125 113 119 112 106 110 114 115 115 120 116 112 119 119 116 119 124 129 138 152 169 189 226 268 289 297 303 259 236 251 268 274 272 201 131 102 66 16 6 9 3 350 338
122 111 105 118 121 115 113 110 106 102 108 113 115 115 112 110 118 128 146 164 173 183 218 246 269 287 298 303 280 264 259 262 242 222 179 156 143 119 93 45 0 342 339 342
100 112 127 121 113 112 114 115 113 111 111 109 115 120 121 125 136 148 158 151 138 152 251 261 275 291 310 314 294 280 263 243 200 150 133 128 122 114 100 76 16 337 336 341
102 105 117 124 128 128 127 127 127 128 126 123 127 131 135 136 136 137 138 139 140 191 260 288 290 294 313 326 318 307 277 225 159 131 122 122 120 113 105 83 18 349 345 342
128 135 138 140 141 141 140 141 140 137 134 135 140 135 125 119 117 125 135 144 184 232 265 270 280 299 310 301 273 261 248 194 142 128 133 139 127 118 116 106 32 349 338 340
155 154 155 153 151 146 140 138 138 138 140 143 136 130 133 142 160 186 203 115 10 326 306 285 281 293 307 307 277 233 189 165 144 143 141 136 122 113 109 98 33 4 348 347
130 135 138 141 144 142 142 141 142 140 138 137 139 148 158 171 179 186 172 148 285 298 301 315 319 312 304 303 303 205 173 151 137 130 132 130 116 106 106 96 52 14 359 358
131 135 136 136 135 137 141 141 139 138 141 142 140 144 158 184 188 181 174 241 244 242 276 300 316 317 312 316 347 139 152 146 138 130 126 122 120 116 107 91 60 25 14 8
142 142 142 143 141 142 144 144 143 145 147 147 151 166 182 194 178 160 173 272 285 277 282 305 317 310 311 323 21 103 124 129 130 132 134 129 124 120 107 91 62 36 23 12
147 146 147 145 143 143 146 146 147 148 148 155 163 163 163 177 182 192 230 232 262 246 208 306 301 300 312 40 75 99 111 118 122 127 131 134 136 136 130 118 80 42 24 12
148 148 149 151 151 148 144 147 152 153 158 167 172 174 181 189 183 185 252 249 223 202 190 263 279 289 96 79 91 104 113 121 126 133 139 142 145 148 147 139 111 54 22 10
145 148 148 145 139 140 151 162 160 162 168 174 183 183 174 179 215 225 221 230 199 193 205 260 265 152 118 105 109 113 116 123 129 134 138 138 142 150 155 157 150 124 40 27
147 145 144 146 152 161 163 156 151 157 162 173 189 192 189 187 197 214 198 204 197 187 210 245 214 154 133 137 138 139 143 152 153 150 151 153 159 163 167 169 175 175 163 73
149 155 159 163 162 157 153 151 154 161 162 173 201 208 201 197 196 184 186 194 193 191 198 212 196 169 161 159 157 156 153 153 154 156 160 160 164 166 171 180 178 176 172 158
141 143 143 144 149 154 156 159 163 170 173 175 195 206 198 191 187 192 191 188 190 199 206 206 196 188 179 171 163 161 158 156 158 161 163 166 171 179 186 184 177 171 169 174